EN

Hourly Weather Bridgwater

Today, 15 April, Thursday

Time Temperature Precipitation Wind Pressure Humidity
00:00 +2°C° 0 mm 2 mps 774 mmHg 89%
01:00 +1°C° 0 mm 2 mps 774 mmHg 88%
02:00 +1°C° 0 mm 2 mps 774 mmHg 88%
03:00 -1°C° 0 mm 2 mps 774 mmHg 87%
04:00 -1°C° 0 mm 2 mps 774 mmHg 88%
05:00 -1°C° 0 mm 2 mps 774 mmHg 89%
06:00 -2°C° 0 mm 3 mps 774 mmHg 90%
07:00 0°C° 0 mm 3 mps 774 mmHg 85%
08:00 +2°C° 0 mm 3 mps 774 mmHg 81%
09:00 +4°C° 0 mm 3 mps 774 mmHg 76%
10:00 +5°C° 0 mm 3 mps 774 mmHg 69%
11:00 +8°C° 0 mm 3 mps 774 mmHg 62%
12:00 +9°C° 0 mm 3 mps 774 mmHg 56%
13:00 +9°C° 0 mm 3 mps 773 mmHg 57%
14:00 +9°C° 0 mm 3 mps 773 mmHg 59%
15:00 +9°C° 0 mm 3 mps 773 mmHg 60%
16:00 +9°C° 0 mm 3 mps 773 mmHg 65%
17:00 +8°C° 0 mm 3 mps 773 mmHg 70%
18:00 +7°C° 0 mm 3 mps 772 mmHg 75%
19:00 +6°C° 0 mm 2 mps 773 mmHg 79%
20:00 +4°C° 0 mm 2 mps 773 mmHg 82%
21:00 +3°C° 0 mm 2 mps 773 mmHg 86%
22:00 +2°C° 0 mm 2 mps 773 mmHg 87%
23:00 +2°C° 0 mm 2 mps 773 mmHg 88%

Tomorrow, 16 April, Friday

Time Temperature Precipitation Wind Pressure Humidity
00:00 +1°C° 0 mm 2 mps 773 mmHg 89%
01:00 +1°C° 0 mm 2 mps 773 mmHg 89%
02:00 +1°C° 0 mm 2 mps 773 mmHg 90%
03:00 -1°C° 0 mm 2 mps 773 mmHg 91%
04:00 -1°C° 0 mm 2 mps 773 mmHg 91%
05:00 -1°C° 0 mm 2 mps 773 mmHg 91%
06:00 -1°C° 0 mm 2 mps 773 mmHg 91%
07:00 +2°C° 0 mm 2 mps 773 mmHg 85%
08:00 +4°C° 0 mm 2 mps 773 mmHg 78%
09:00 +7°C° 0 mm 3 mps 773 mmHg 71%
10:00 +8°C° 0 mm 3 mps 773 mmHg 67%
11:00 +9°C° 0 mm 3 mps 772 mmHg 63%
12:00 +10°C° 0 mm 3 mps 772 mmHg 60%
13:00 +10°C° 0 mm 2 mps 772 mmHg 60%
14:00 +10°C° 0 mm 2 mps 771 mmHg 60%
15:00 +10°C° 0 mm 2 mps 771 mmHg 59%
16:00 +10°C° 0 mm 1 mps 771 mmHg 64%
17:00 +10°C° 0 mm 1 mps 771 mmHg 69%
18:00 +9°C° 0 mm 1 mps 771 mmHg 74%
19:00 +8°C° 0 mm 1 mps 771 mmHg 75%
20:00 +7°C° 0 mm 1 mps 771 mmHg 76%
21:00 +5°C° 0 mm 1 mps 771 mmHg 77%
22:00 +5°C° 0 mm 1 mps 771 mmHg 78%
23:00 +4°C° 0 mm 1 mps 771 mmHg 80%

Day after tomorrow, 17 April, Saturday

Time Temperature Precipitation Wind Pressure Humidity
00:00 +3°C° 0 mm 1 mps 771 mmHg 81%
01:00 +3°C° 0 mm 1 mps 771 mmHg 82%
02:00 +2°C° 0 mm 1 mps 771 mmHg 83%
03:00 +2°C° 0 mm 1 mps 771 mmHg 84%
04:00 +2°C° 0 mm 1 mps 771 mmHg 85%
05:00 +2°C° 0 mm 1 mps 771 mmHg 85%
06:00 +2°C° 0 mm 1 mps 771 mmHg 85%
07:00 +4°C° 0 mm 1 mps 771 mmHg 80%
08:00 +6°C° 0 mm 2 mps 771 mmHg 75%
09:00 +8°C° 0 mm 2 mps 771 mmHg 69%
10:00 +9°C° 0 mm 2 mps 771 mmHg 66%
11:00 +10°C° 0 mm 2 mps 770 mmHg 63%
12:00 +12°C° 0 mm 2 mps 770 mmHg 60%
13:00 +12°C° 0 mm 1 mps 770 mmHg 60%
14:00 +12°C° 0 mm 1 mps 769 mmHg 60%
15:00 +12°C° 0 mm 1 mps 769 mmHg 60%
16:00 +11°C° 0 mm 1 mps 769 mmHg 65%
17:00 +10°C° 0 mm 2 mps 769 mmHg 70%
18:00 +9°C° 0 mm 2 mps 769 mmHg 76%
19:00 +8°C° 0 mm 2 mps 769 mmHg 77%
20:00 +7°C° 0 mm 2 mps 769 mmHg 79%
21:00 +5°C° 0 mm 2 mps 769 mmHg 80%
22:00 +5°C° 0 mm 2 mps 769 mmHg 81%
23:00 +6°C° 0 mm 1 mps 769 mmHg 81%

18 April, Sunday

Time Temperature Precipitation Wind Pressure Humidity
00:00 +5°C° 0 mm 1 mps 769 mmHg 81%
01:00 +5°C° 0 mm 1 mps 769 mmHg 81%
02:00 +5°C° 0 mm 1 mps 768 mmHg 81%
03:00 +4°C° 0 mm 1 mps 768 mmHg 81%
04:00 +4°C° 0 mm 1 mps 768 mmHg 80%
05:00 +5°C° 0 mm 1 mps 768 mmHg 79%
06:00 +5°C° 0 mm 1 mps 768 mmHg 78%
07:00 +5°C° 0 mm 2 mps 768 mmHg 73%
08:00 +7°C° 0 mm 2 mps 768 mmHg 68%
09:00 +9°C° 0 mm 2 mps 768 mmHg 64%
10:00 +10°C° 0 mm 2 mps 768 mmHg 62%
11:00 +10°C° 0 mm 2 mps 768 mmHg 60%
12:00 +11°C° 0 mm 3 mps 767 mmHg 58%
13:00 +12°C° 0 mm 3 mps 767 mmHg 60%
14:00 +12°C° 0 mm 3 mps 767 mmHg 62%
15:00 +12°C° 0 mm 3 mps 767 mmHg 64%
16:00 +12°C° 0 mm 2 mps 767 mmHg 69%
17:00 +10°C° 0 mm 2 mps 767 mmHg 75%
18:00 +9°C° 0 mm 2 mps 767 mmHg 81%
19:00 +8°C° 0 mm 2 mps 767 mmHg 83%
20:00 +7°C° 0 mm 2 mps 767 mmHg 86%
21:00 +6°C° 0 mm 2 mps 767 mmHg 88%
22:00 +5°C° 0 mm 2 mps 767 mmHg 88%
23:00 +5°C° 0 mm 2 mps 767 mmHg 88%

19 April, Monday

Time Temperature Precipitation Wind Pressure Humidity
00:00 +5°C° 0 mm 2 mps 766 mmHg 88%
01:00 +4°C° 0 mm 2 mps 766 mmHg 89%
02:00 +4°C° 0 mm 2 mps 766 mmHg 90%
03:00 +4°C° 0 mm 2 mps 765 mmHg 91%
04:00 +4°C° 0 mm 2 mps 765 mmHg 90%
05:00 +4°C° 0 mm 2 mps 765 mmHg 90%
06:00 +5°C° 0 mm 2 mps 765 mmHg 89%
07:00 +6°C° 0 mm 2 mps 765 mmHg 84%
08:00 +8°C° 0 mm 3 mps 765 mmHg 79%
09:00 +10°C° 0 mm 3 mps 764 mmHg 74%
10:00 +10°C° 0 mm 3 mps 764 mmHg 71%
11:00 +11°C° 0 mm 3 mps 764 mmHg 68%
12:00 +12°C° 0 mm 3 mps 764 mmHg 65%
13:00 +12°C° 0 mm 3 mps 763 mmHg 66%
14:00 +12°C° 0 mm 3 mps 763 mmHg 66%
15:00 +12°C° 0 mm 3 mps 763 mmHg 66%
16:00 +11°C° 0 mm 3 mps 762 mmHg 71%
17:00 +10°C° 0 mm 3 mps 762 mmHg 76%
18:00 +9°C° 0 mm 2 mps 762 mmHg 80%
19:00 +8°C° 0 mm 2 mps 762 mmHg 81%
20:00 +7°C° 0 mm 2 mps 762 mmHg 81%
21:00 +7°C° 0 mm 1 mps 763 mmHg 81%
22:00 +7°C° 0 mm 1 mps 763 mmHg 80%
23:00 +7°C° 0 mm 1 mps 763 mmHg 79%

20 April, Tuesday

Time Temperature Precipitation Wind Pressure Humidity
00:00 +6°C° 0 mm 0 mps 762 mmHg 78%
01:00 +6°C° 0 mm 0 mps 762 mmHg 77%
02:00 +6°C° 0 mm 0 mps 762 mmHg 76%
03:00 +7°C° 0 mm 1 mps 762 mmHg 75%
04:00 +7°C° 0 mm 1 mps 762 mmHg 76%
05:00 +8°C° 0 mm 1 mps 763 mmHg 77%
06:00 +8°C° 0 mm 1 mps 763 mmHg 79%
07:00 +9°C° 0 mm 1 mps 763 mmHg 77%
08:00 +9°C° 0 mm 2 mps 763 mmHg 76%
09:00 +10°C° 0 mm 2 mps 764 mmHg 74%
10:00 +11°C° 0 mm 3 mps 764 mmHg 72%
11:00 +12°C° 0 mm 3 mps 764 mmHg 69%
12:00 +13°C° 0 mm 3 mps 764 mmHg 67%
13:00 +13°C° 0.1 mm 3 mps 764 mmHg 69%
14:00 +13°C° 0.1 mm 4 mps 764 mmHg 71%
15:00 +13°C° 0.1 mm 4 mps 764 mmHg 72%
16:00 +13°C° 0.1 mm 4 mps 764 mmHg 76%
17:00 +12°C° 0.1 mm 4 mps 765 mmHg 79%
18:00 +11°C° 0.1 mm 4 mps 765 mmHg 83%
19:00 +10°C° 0 mm 4 mps 766 mmHg 85%
20:00 +8°C° 0 mm 4 mps 766 mmHg 86%
21:00 +7°C° 0 mm 4 mps 767 mmHg 88%
22:00 +6°C° 0 mm 4 mps 767 mmHg 90%
23:00 +5°C° 0 mm 4 mps 767 mmHg 92%
Show more

We Need Your Consent

Meteoprog and our Service Providers may store and access personal data such as cookies, device identifiers or other similar technologies on your device and process such data to personalise content and ads, as well as provide social media features and to analyse the traffic.

  • Store and/or access information on your device

    Cookies, device identifiers or other information can be stored or accessed on your device for the purposes indicated above.

  • Personalised ads and content, ad and content measurement, audience insights, and products development

    Ads and content can be personalised based on a profile. More data can be added to better personalise ads and content. Ad and content performance can be measured. Insights about the audience who saw the ads and content can be derived. Such data can be used to develop or improve user’s experience, systems and software.

By clicking ‘I Agree’ you will allow the use of indicated cookies, device identifiers, web beacons or other similar technologies. Your settings can be changed in the browser on your device.

For certain purposes, legitimate interests may be relied on, rather than consent. You can read more about this in our Privacy and Cookie Policy.